Location: Ferris
(32.5340°N, 96.6656°W)
Time: 22:33:23
(UTC+00:00)

Cosmos 1354 Rocket - Pass Details

Date: 22 May 2026
Orbit: 761 x 778 km, 74.0° (Epoch: 7 June)

Event Time Altitude Azimuth Distance (km) Brightness Sun altitude
Rises 04:27:41 0° 332° (NNW) 3,227 8.4 -30.3°
Reaches altitude 10° 04:30:14 10° 323° (NW) 2,296 7.4 -30.6°
Enters shadow 04:34:27 34° 271° (W) 1,245 5.2 -31.0°
